Change the Weather History Date:

Thursday, July 4, 2013

  Actual Average (KABI) Record (KABI)
Temperature  
Mean Temperature 76 °F 82 °F  
Max Temperature 93 °F 93 °F 103 °F (1971)
Min Temperature 59 °F 71 °F 58 °F (1924)
Degree Days  
Heating Degree Days 0 0  
Month to date heating degree days 0  
Since 1 June heating degree days 1  
Since 1 July heating degree days 0  
Cooling Degree Days 11 17  
Month to date cooling degree days 68  
Year to date cooling degree days 900  
Since 1 June cooling degree days 503  
Growing Degree Days 26 (Base 50)    
Moisture  
Dew Point 47 °F    
Average Humidity 35    
Maximum Humidity 67    
Minimum Humidity 18    
Precipitation  
Precipitation 0.00 in 0.07 in 1.41 in (2002)
Month to date precipitation 0.28  
Year to date precipitation 12.78  
Sea Level Pressure  
Sea Level Pressure 29.97 in    
Wind  
Wind Speed 4 mph (South)    
Max Wind Speed 13 mph    
Max Gust Speed 21 mph    
Visibility 10 miles    
Events      
T = Trace of Precipitation, MM = Missing Value Source: NWS Daily Summary

Daily Weather History Graph

Daily Weather History Graph

Search for Another Location

Airport or City:

Trip Planner

Search our weather history database for the weather conditions in past years. The results will help you decide how hot, cold, wet, or windy it might be!

Date:

Astronomy

Jul. 04, 2013 Rise Set
Actual Time 6:35 AM CDT 8:45 PM CDT
Civil Twilight 6:07 AM CDT 9:13 PM CDT
Nautical Twilight 5:33 AM CDT 9:47 PM CDT
Astronomical Twilight 4:56 AM CDT 10:23 PM CDT
Moon 3:48 AM CDT (7/4) 5:54 PM CDT (7/4)
Length of Visible Light 15h 05m
Length of Day
14h 09m
Waning Crescent, 11% of the Moon is Illuminated
Jul 4
Waning Crescent
Jul 8
New
Jul 15
First Quarter
Jul 22
Full
Jul 29
Last Quarter

Hourly Weather History & Observations

Time (CDT) Temp. Heat Index Dew Point Humidity Pressure Visibility Wind Dir Wind Speed Gust Speed Precip Events Conditions
12:15 AM 73.4 °F - 44.6 °F 36% 30.00 in 10.0 mi South 3.5 mph - N/A   Partly Cloudy
12:35 AM 71.6 °F - 44.6 °F 38% 30.00 in 10.0 mi ESE 4.6 mph - N/A   Scattered Clouds
12:55 AM 71.6 °F - 44.6 °F 38% 30.00 in 10.0 mi Calm Calm - N/A   Scattered Clouds
1:15 AM 69.8 °F - 44.6 °F 40% 30.00 in 10.0 mi Calm Calm - N/A   Scattered Clouds
1:35 AM 68.0 °F - 46.4 °F 46% 30.00 in 10.0 mi Calm Calm - N/A   Partly Cloudy
1:55 AM 64.4 °F - 46.4 °F 52% 30.00 in 10.0 mi SW 3.5 mph - N/A   Scattered Clouds
2:15 AM 66.2 °F - 46.4 °F 49% 29.99 in 10.0 mi Calm Calm - N/A   Scattered Clouds
2:35 AM 66.2 °F - 46.4 °F 49% 29.99 in 10.0 mi Calm Calm - N/A   Clear
2:55 AM 68.0 °F - 46.4 °F 46% 29.99 in 10.0 mi Calm Calm - N/A   Clear
3:15 AM 66.2 °F - 46.4 °F 49% 29.99 in 10.0 mi WSW 4.6 mph - N/A   Clear
3:35 AM 66.2 °F - 46.4 °F 49% 29.98 in 10.0 mi Calm Calm - N/A   Clear
3:55 AM 66.2 °F - 46.4 °F 49% 29.98 in 10.0 mi Calm Calm - N/A   Clear
4:15 AM 62.6 °F - 46.4 °F 55% 29.98 in 10.0 mi Calm Calm - N/A   Clear
4:35 AM 64.4 °F - 46.4 °F 52% 29.98 in 10.0 mi Calm Calm - N/A   Clear
4:55 AM 64.4 °F - 46.4 °F 52% 29.98 in 10.0 mi Calm Calm - N/A   Clear
5:15 AM 62.6 °F - 46.4 °F 55% 29.98 in 10.0 mi Calm Calm - N/A   Clear
5:35 AM 59.0 °F - 46.4 °F 63% 29.98 in 10.0 mi Calm Calm - N/A   Clear
5:55 AM 62.6 °F - 48.2 °F 59% 29.99 in 10.0 mi ENE 3.5 mph - N/A   Clear
6:15 AM 60.8 °F - 48.2 °F 63% 29.99 in 10.0 mi Calm Calm - N/A   Clear
6:35 AM 64.4 °F - 48.2 °F 56% 30.00 in 10.0 mi Calm Calm - N/A   Clear
6:55 AM 59.0 °F - 48.2 °F 67% 30.01 in 10.0 mi Calm Calm - N/A   Partly Cloudy
7:15 AM 59.0 °F - 48.2 °F 67% 30.01 in 10.0 mi Calm Calm - N/A   Clear
7:35 AM 64.4 °F - 50.0 °F 59% 30.01 in 10.0 mi Calm Calm - N/A   Clear
7:55 AM 68.0 °F - 50.0 °F 52% 30.01 in 10.0 mi Calm Calm - N/A   Clear
8:15 AM 68.0 °F - 51.8 °F 56% 30.01 in 10.0 mi Calm Calm - N/A   Clear
8:35 AM 71.6 °F - 53.6 °F 53% 30.02 in 10.0 mi Calm Calm - N/A   Clear
8:55 AM 73.4 °F - 53.6 °F 50% 30.02 in 10.0 mi SW 8.1 mph - N/A   Clear
9:15 AM 75.2 °F - 53.6 °F 47% 30.03 in 10.0 mi SSW 5.8 mph - N/A   Clear
9:35 AM 77.0 °F - 55.4 °F 47% 30.02 in 10.0 mi South 6.9 mph - N/A   Clear
9:55 AM 80.6 °F 80.3 °F 53.6 °F 39% 30.02 in 10.0 mi SSW 5.8 mph - N/A   Clear
10:15 AM 82.4 °F 81.4 °F 53.6 °F 37% 30.02 in 10.0 mi South 9.2 mph - N/A   Clear
10:35 AM 84.2 °F 82.8 °F 53.6 °F 35% 30.02 in 10.0 mi SSW 6.9 mph - N/A   Clear
10:55 AM 84.2 °F 82.8 °F 53.6 °F 35% 30.02 in 10.0 mi SSW 5.8 mph - N/A   Clear
11:15 AM 86.0 °F - 51.8 °F 31% 30.01 in 10.0 mi South 6.9 mph - N/A   Clear
11:35 AM 87.8 °F - 51.8 °F 29% 30.01 in 10.0 mi South 8.1 mph - N/A   Clear
11:55 AM 89.6 °F - 50.0 °F 26% 30.01 in 10.0 mi South 8.1 mph - N/A   Clear
12:15 PM 89.6 °F - 50.0 °F 26% 30.00 in 10.0 mi SSE 8.1 mph 16.1 mph N/A   Clear
12:35 PM 91.4 °F 89.1 °F 53.6 °F 28% 30.00 in 10.0 mi SW 12.7 mph - N/A   Partly Cloudy
12:55 PM 89.6 °F - 50.0 °F 26% 29.99 in 10.0 mi WSW 5.8 mph 16.1 mph N/A   Partly Cloudy
1:15 PM 91.4 °F - 48.2 °F 23% 29.99 in 10.0 mi South 6.9 mph 18.4 mph N/A   Clear
1:35 PM 93.2 °F - 48.2 °F 21% 29.98 in 10.0 mi South 9.2 mph - N/A   Clear
1:55 PM 91.4 °F - 46.4 °F 21% 29.98 in 10.0 mi West 3.5 mph - N/A   Clear
2:15 PM 91.4 °F - 46.4 °F 21% 29.97 in 10.0 mi West 5.8 mph 16.1 mph N/A   Clear
2:35 PM 91.4 °F - 44.6 °F 20% 29.96 in 10.0 mi SW 8.1 mph - N/A   Clear
2:55 PM 93.2 °F - 46.4 °F 20% 29.96 in 10.0 mi SW 9.2 mph 16.1 mph N/A   Clear
3:15 PM 91.4 °F - 46.4 °F 21% 29.95 in 10.0 mi South 10.4 mph - N/A   Clear
3:35 PM 91.4 °F - 44.6 °F 20% 29.94 in 10.0 mi SSW 4.6 mph 17.3 mph N/A   Clear
3:55 PM 93.2 °F - 44.6 °F 19% 29.94 in 10.0 mi SW 8.1 mph - N/A   Clear
4:15 PM 93.2 °F - 44.6 °F 19% 29.93 in 9.0 mi SW 9.2 mph 20.7 mph N/A   Clear
4:35 PM 93.2 °F - 44.6 °F 19% 29.93 in 10.0 mi SSW 11.5 mph - N/A   Clear
4:55 PM 93.2 °F - 46.4 °F 20% 29.92 in 10.0 mi South 11.5 mph - N/A   Clear
5:15 PM 93.2 °F - 44.6 °F 19% 29.92 in 10.0 mi SSW 11.5 mph 18.4 mph N/A   Clear
5:35 PM 93.2 °F - 44.6 °F 19% 29.91 in 10.0 mi SSE 9.2 mph - N/A   Partly Cloudy
5:55 PM 91.4 °F - 44.6 °F 20% 29.91 in 10.0 mi SSW 5.8 mph - N/A   Clear
6:15 PM 93.2 °F - 44.6 °F 19% 29.91 in 10.0 mi SE 4.6 mph - N/A   Clear
6:35 PM 93.2 °F - 44.6 °F 19% 29.91 in 10.0 mi South 6.9 mph - N/A   Clear
6:55 PM 93.2 °F - 44.6 °F 19% 29.91 in 10.0 mi South 5.8 mph - N/A   Clear
7:15 PM 91.4 °F - 42.8 °F 18% 29.91 in 10.0 mi South 10.4 mph - N/A   Clear
7:35 PM 91.4 °F - 42.8 °F 18% 29.91 in 10.0 mi SSE 9.2 mph - N/A   Clear
7:55 PM 91.4 °F - 42.8 °F 18% 29.91 in 10.0 mi South 6.9 mph - N/A   Clear
8:15 PM 89.6 °F - 42.8 °F 20% 29.91 in 10.0 mi South 6.9 mph - N/A   Clear
8:35 PM 86.0 °F - 42.8 °F 22% 29.91 in 10.0 mi South 5.8 mph - N/A   Clear
8:55 PM 84.2 °F - 42.8 °F 23% 29.91 in 10.0 mi SSE 4.6 mph - N/A   Clear
9:15 PM 84.2 °F - 44.6 °F 25% 29.91 in 10.0 mi SSE 5.8 mph - N/A   Clear
9:35 PM 82.4 °F - 44.6 °F 26% 29.93 in 10.0 mi SE 6.9 mph - N/A   Clear
9:55 PM 80.6 °F - 44.6 °F 28% 29.93 in 10.0 mi SSE 8.1 mph - N/A   Clear
10:15 PM 82.4 °F - 44.6 °F 26% 29.94 in 10.0 mi SE 8.1 mph - N/A   Clear
10:35 PM 82.4 °F - 44.6 °F 26% 29.95 in 10.0 mi SE 8.1 mph - N/A   Clear
10:55 PM 80.6 °F - 44.6 °F 28% 29.96 in 10.0 mi SE 8.1 mph - N/A   Clear
11:15 PM 80.6 °F - 46.4 °F 30% 29.96 in 10.0 mi SE 6.9 mph - N/A   Partly Cloudy
11:35 PM 78.8 °F - 46.4 °F 32% 29.96 in 10.0 mi SE 6.9 mph - N/A   Clear
11:55 PM 77.0 °F - 46.4 °F 34% 29.97 in 10.0 mi SE 6.9 mph - N/A   Clear